Regional Weather Roundup
Issued by NWS Jackson, KY

Home | Current Version | Previous Version | Graphics & Text | Print | Product List | Glossary On
Versions: 1 2 3 4 5 6 7 8 9 10 11 12 13 14 15 16 17 18 19 20 21 22 23 24 25 26 27
000
ASUS43 KJKL 212110
RWRJKL

EAST KENTUCKY HOURLY WEATHER ROUNDUP
NATIONAL WEATHER SERVICE JACKSON KY
400 PM EST TUE NOV 21 2017

NOTE: "FAIR" INDICATES FEW OR NO CLOUDS BELOW 12,000 FEET WITH
NO SIGNIFICANT WEATHER AND/OR OBSTRUCTIONS TO VISIBILITY.

* THESE REPORTS ARE NOT UNDER NWS QUALITY CONTROL AND MAY NOT
  REPORT WEATHER SUCH AS PRECIPITATION AND FOG.

KYZ079-080-083-085-087-088-110-112-115-119-120-212200
...EASTERN KENTUCKY...

CITY           SKY/WX    TMP DP  RH WIND       PRES   REMARKS
JACKSON        MOSUNNY   62  43  49 VRB3G25   29.96F
LONDON         SUNNY     63  43  48 SW14G25   29.96F
SOMERSET*      SUNNY     61  37  41 W10       29.97F
MONTICELLO*    SUNNY     62  41  46 W20       29.99S
WILLIAMSBURG*  CLEAR     63  46  55 S7        29.97F
MIDDLESBORO*   SUNNY     60  48  64 S5        30.00F
HARLAN APT*    CLOUDY    59  45  58 S5        30.01S
PIKE CO APT*   PTSUNNY   61  44  54 SW7       29.98S
BIG SANDY APT* MOCLDY    63  42  47 SW8       29.97S
MOREHEAD APT*  CLEAR     61  30  31 SW14G22   29.96F
$$

KYZ035-036-041-042-044-050-067-078-099-212200
...CENTRAL KENTUCKY...

CITY           SKY/WX    TMP DP  RH WIND       PRES   REMARKS
MT STERLING*   SUNNY     59  32  36 W12       29.97S
FLEMING/MASON* SUNNY     56  29  34 W13G25    29.96S
DANVILLE*      SUNNY     55  28  35 SW10G16   29.98S
LEXINGTON      SUNNY     57  29  34 SW14      29.96F
FRANKFORT      SUNNY     56  26  31 SW10      29.95S
LOUISVILLE     PTSUNNY   58  30  34 W14       29.96R
LEBANON*         N/A     55  28  35 SW10      29.97F
GLASGOW*       SUNNY     59  29  32 W9        29.98F
BOWLING GREEN  CLOUDY    58  30  34 SW10      29.99F
$$

KYZ091>093-OHZ055-061-077-WVZ005-015-034-035-042-212200
...SOUTHERN OHIO/WEST VIRGINIA...

CITY           SKY/WX    TMP DP  RH WIND       PRES   REMARKS
COVINGTON      PTSUNNY   55  31  39 SW16G22   29.92R
COLUMBUS       MOSUNNY   55  29  36 SW18G26   29.91R
DAYTON         CLOUDY    52  35  52 SW13      29.91R
WILMINGTON     CLOUDY    53  32  44 SW13      29.91R
HUNTINGTON     SUNNY     63  38  39 SW9G18    29.94F
CHARLESTON     MOSUNNY   63  36  36 SW14      29.95F
PINEVILLE*     MOSUNNY   62  37  39 MISG      30.04S
BECKLEY        MOSUNNY   58  35  42 SW17G28   30.00S
BLUEFIELD      PTSUNNY   56  38  50 SW12      30.03S
LOGAN CO APT*  CLOUDY    61  39  44 VRB5G15   29.96F
$$

VAZ002-007-008-TNZ017-027-036-066-071-212200
...SOUTHWEST VIRGINIA/EAST TENNESSEE...

CITY           SKY/WX    TMP DP  RH WIND       PRES   REMARKS
WISE*          MOSUNNY   57  41  54 SW10      30.02S
JONESVILLE*      N/A     59  45  58 SW6       30.03F
ABINGDON*      MOSUNNY   62  43  49 W9        30.02F
BRISTOL        MOSUNNY   63  44  50 S5        30.01F
MORRISTOWN*    CLOUDY    59  43  55 NW6       30.01S
SEVIERVILLE*   CLOUDY    59  41  51 CALM      30.01S
KNOXVILLE      PTSUNNY   59  49  69 W8        30.00F
LAFOLLETTE*    PTCLDY    63  48  59 SW7       30.02F
OAK RIDGE      MOSUNNY   59  48  67 VRB5      30.02F
CROSSVILLE     MOSUNNY   59  47  64 S9        29.99F
NASHVILLE      PTSUNNY   60  28  29 SW7       30.00F
$$

...KEY TO REMARKS...
VSB - VISIBILITY IN MILES
WCI - WIND CHILL INDEX
HX  - HEAT INDEX

$$




USA.gov is the U.S. government's official web portal to all federal, state and local government web resources and services.